Location: Bogis-Bossey
(46.3500°N, 6.1667°E)
Time: 19:13:28
(UTC+00:00)

USA 238 DEB - Pass Details

Date: 05 March 2024
Orbit: 926 x 1285 km, 63.4° (Epoch: 21 April)

Event Time Altitude Azimuth Distance (km) Brightness Sun altitude
Exits shadow 05:19:02 - 295° (WNW) 3,023 5.5 -9.0°
Reaches altitude 10° 05:19:51 10° 299° (WNW) 2,822 5.4 -8.9°
Maximum altitude 05:24:47 21° 348° (NNW) 2,203 5.3 -8.0°
Drops below altitude 10° 05:30:01 10° 35° (NE) 3,018 6.6 -7.1°
Sets 05:33:39 0° 51° (NE) 4,048 7.6 -6.5°
